,,,PA_Meas_PMT16A,,PR_Meas_QMR101_102,,RH_Meas_QMH101,,SR_Meas_QMS101,,TA_Meas_QMH101,,GenWind,,GenWind,
date,time,status,PA,status,PR,status,RH,status,SR,status,TA,status,DirAvg,status,SpdAvg,
2012-07-01, 00:00:04,VALID,1000.05,VALID,0,VALID,94.0808,VALID,0,VALID,22.2788,VALID,19,VALID,0.863281,
2012-07-01, 00:01:04,VALID,1000.02,VALID,0,VALID,94.0427,VALID,0,VALID,22.2576,VALID,19,VALID,0.769531,
2012-07-01, 00:02:04,VALID,999.979,VALID,0,VALID,93.9588,VALID,0,VALID,22.2397,VALID,19,VALID,0.474219,
2012-07-01, 00:03:04,VALID,1000,VALID,0,VALID,93.8825,VALID,0,VALID,22.2007,VALID,19,VALID,0.35,
2012-07-01, 00:04:04,VALID,999.976,VALID,0,VALID,93.9283,VALID,0,VALID,22.16,VALID,19,VALID,0.251563,
2012-07-01, 00:05:04,VALID,999.973,VALID,0,VALID,94.0808,VALID,0,VALID,22.16,VALID,19,VALID,0.452734,
2012-07-01, 00:06:04,VALID,999.986,VALID,0,VALID,94.1953,VALID,0,VALID,22.1812,VALID,19,VALID,0.614844,
2012-07-01, 00:07:04,VALID,999.965,VALID,0,VALID,94.2792,VALID,0,VALID,22.1795,VALID,19,VALID,0.628906,
2012-07-01, 00:08:04,VALID,999.94,VALID,0,VALID,94.3097,VALID,0,VALID,22.16,VALID,19,VALID,0.622266,
2012-07-01, 00:09:04,VALID,999.958,VALID,0,VALID,94.2945,VALID,0,VALID,22.16,VALID,19,VALID,0.698828,
2012-07-01, 00:10:04,VALID,999.913,VALID,0,VALID,94.3174,VALID,0,VALID,22.1405,VALID,19,VALID,0.714453,
2012-07-01, 00:11:04,VALID,999.912,VALID,0,VALID,94.3708,VALID,0,VALID,22.1405,VALID,19,VALID,0.892187,
2012-07-01, 00:12:04,VALID,999.907,VALID,0,VALID,94.4471,VALID,0,VALID,22.16,VALID,19,VALID,0.855078,
2012-07-01, 00:13:04,VALID,999.902,VALID,0,VALID,94.4623,VALID,0,VALID,22.2007,VALID,19,VALID,0.810547,
2012-07-01, 00:14:04,VALID,999.92,VALID,0,VALID,94.4242,VALID,0,VALID,22.16,VALID,19,VALID,0.650781,
2012-07-01, 00:15:04,VALID,999.918,VALID,0,VALID,94.4776,VALID,0,VALID,22.1795,VALID,19,VALID,0.616406,
2012-07-01, 00:16:04,VALID,999.895,VALID,0,VALID,94.5081,VALID,0,VALID,22.1795,VALID,19,VALID,0.699609,
2012-07-01, 00:17:04,VALID,999.918,VALID,0,VALID,94.5157,VALID,0,VALID,22.1584,VALID,19,VALID,0.625,
2012-07-01, 00:18:04,VALID,999.888,VALID,0,VALID,94.531,VALID,0,VALID,22.1795,VALID,19,VALID,0.617578,
2012-07-01, 00:19:04,VALID,999.913,VALID,0,VALID,94.5539,VALID,0,VALID,22.199,VALID,19,VALID,0.671094,
2012-07-01, 00:20:04,VALID,999.903,VALID,0,VALID,94.5462,VALID,0,VALID,22.199,VALID,19,VALID,0.683203,
2012-07-01, 00:21:04,VALID,999.873,VALID,0,VALID,94.531,VALID,0,VALID,22.2186,VALID,19,VALID,0.829297,
2012-07-01, 00:22:04,VALID,999.907,VALID,0,VALID,94.4623,VALID,0,VALID,22.1795,VALID,19,VALID,0.791406,
2012-07-01, 00:23:04,VALID,999.896,VALID,0,VALID,94.386,VALID,0,VALID,22.1795,VALID,19,VALID,0.707031,
2012-07-01, 00:24:04,VALID,999.85,VALID,0,VALID,94.3708,VALID,0,VALID,22.1795,VALID,19,VALID,0.800391,
2012-07-01, 00:25:04,VALID,999.89,VALID,0,VALID,94.3937,VALID,0,VALID,22.1795,VALID,19,VALID,0.976953,
2012-07-01, 00:26:04,VALID,999.875,VALID,0,VALID,94.4471,VALID,0,VALID,22.199,VALID,23,VALID,0.980078,
2012-07-01, 00:27:04,VALID,999.875,VALID,0,VALID,94.47,VALID,0,VALID,22.2186,VALID,26,VALID,0.953906,
2012-07-01, 00:28:04,VALID,999.865,VALID,0,VALID,94.4318,VALID,0,VALID,22.2186,VALID,26,VALID,0.963281,
2012-07-01, 00:29:04,VALID,999.841,VALID,0,VALID,94.4471,VALID,0,VALID,22.2381,VALID,26,VALID,1.1043,
2012-07-01, 00:30:04,VALID,999.842,VALID,0,VALID,94.4852,VALID,0,VALID,22.2576,VALID,26,VALID,0.989844,
2012-07-01, 00:31:05,VALID,999.836,VALID,0,VALID,94.4852,VALID,0,VALID,22.2576,VALID,26,VALID,0.882813,
2012-07-01, 00:32:05,VALID,999.799,VALID,0,VALID,94.4928,VALID,0,VALID,22.2576,VALID,26,VALID,0.847656,
2012-07-01, 00:33:05,VALID,999.771,VALID,0,VALID,94.5539,VALID,0,VALID,22.2771,VALID,26,VALID,0.863672,
2012-07-01, 00:34:05,VALID,999.817,VALID,0,VALID,94.6073,VALID,0,VALID,22.2966,VALID,26,VALID,0.889844,
2012-07-01, 00:35:05,VALID,999.799,VALID,0,VALID,94.6378,VALID,0,VALID,22.3178,VALID,26,VALID,0.684766,
2012-07-01, 00:36:05,VALID,999.765,VALID,0,VALID,94.6454,VALID,0,VALID,22.3178,VALID,26,VALID,0.606641,
2012-07-01, 00:37:05,VALID,999.815,VALID,0,VALID,94.6454,VALID,0,VALID,22.3178,VALID,26,VALID,0.445703,
2012-07-01, 00:38:05,VALID,999.824,VALID,0,VALID,94.5691,VALID,0,VALID,22.2983,VALID,26,VALID,0.590625,
2012-07-01, 00:39:05,VALID,999.788,VALID,0,VALID,94.5539,VALID,0,VALID,22.2966,VALID,26,VALID,0.592969,
2012-07-01, 00:40:05,VALID,999.798,VALID,0,VALID,94.5157,VALID,0,VALID,22.3178,VALID,26,VALID,0.373437,
2012-07-01, 00:41:05,VALID,999.793,VALID,0,VALID,94.4242,VALID,0,VALID,22.2576,VALID,26,VALID,0.130078,
2012-07-01, 00:42:05,VALID,999.788,VALID,0,VALID,94.4165,VALID,0,VALID,22.2592,VALID,26,VALID,0.269531,
2012-07-01, 00:43:05,VALID,999.776,VALID,0,VALID,94.5081,VALID,0,VALID,22.2788,VALID,26,VALID,0.366406,
2012-07-01, 00:44:05,VALID,999.751,VALID,0,VALID,94.592,VALID,0,VALID,22.2788,VALID,26,VALID,0.385156,
2012-07-01, 00:45:05,VALID,999.752,VALID,0,VALID,94.6302,VALID,0,VALID,22.2788,VALID,26,VALID,0.311719,
2012-07-01, 00:46:05,VALID,999.701,VALID,0,VALID,94.592,VALID,0,VALID,22.2788,VALID,26,VALID,0.181641,
2012-07-01, 00:47:05,VALID,999.717,VALID,0,VALID,94.5997,VALID,0,VALID,22.2788,VALID,26,VALID,0.151953,
2012-07-01, 00:48:05,VALID,999.729,VALID,0,VALID,94.5539,VALID,0,VALID,22.2592,VALID,26,VALID,0.121875,
2012-07-01, 00:49:05,VALID,999.706,VALID,0,VALID,94.5615,VALID,0,VALID,22.2576,VALID,26,VALID,0.0140625,
2012-07-01, 00:50:05,VALID,999.691,VALID,0,VALID,94.5462,VALID,0,VALID,22.2381,VALID,26,VALID,0.142969,
2012-07-01, 00:51:05,VALID,999.703,VALID,0,VALID,94.5234,VALID,0,VALID,22.2169,VALID,26,VALID,0.0917969,
2012-07-01, 00:52:05,VALID,999.66,VALID,0,VALID,94.5157,VALID,0,VALID,22.2186,VALID,26,VALID,0.172656,
2012-07-01, 00:53:05,VALID,999.645,VALID,0,VALID,94.5081,VALID,0,VALID,22.2381,VALID,26,VALID,0.45625,
2012-07-01, 00:54:05,VALID,999.638,VALID,0,VALID,94.5691,VALID,0,VALID,22.2576,VALID,26,VALID,0.409375,
2012-07-01, 00:55:05,VALID,999.601,VALID,0,VALID,94.4852,VALID,0.104696,VALID,22.2576,VALID,26,VALID,0.0636719,
2012-07-01, 00:56:05,VALID,999.629,VALID,0,VALID,94.386,VALID,0,VALID,22.2381,VALID,26,VALID,0,
2012-07-01, 00:57:05,VALID,999.569,VALID,0,VALID,94.3708,VALID,0,VALID,22.2381,VALID,26,VALID,0.354297,
2012-07-01, 00:58:05,VALID,999.569,VALID,0,VALID,94.3555,VALID,0,VALID,22.2169,VALID,26,VALID,0.599219,
2012-07-01, 00:59:05,VALID,999.573,VALID,0,VALID,94.2258,VALID,0,VALID,22.2186,VALID,26,VALID,0.16875,
2012-07-01, 01:00:05,VALID,999.556,VALID,0,VALID,94.1419,VALID,0,VALID,22.16,VALID,26,VALID,0.0203125,
2012-07-01, 01:01:05,VALID,999.549,VALID,0,VALID,94.1953,VALID,0,VALID,22.16,VALID,26,VALID,0.292578,
2012-07-01, 01:02:05,VALID,999.508,VALID,0,VALID,94.3708,VALID,0,VALID,22.16,VALID,26,VALID,0.292969,
2012-07-01, 01:03:05,VALID,999.482,VALID,0,VALID,94.5005,VALID,0,VALID,22.16,VALID,26,VALID,0.258594,
2012-07-01, 01:04:05,VALID,999.489,VALID,0,VALID,94.6302,VALID,0,VALID,22.1617,VALID,26,VALID,0.166797,
2012-07-01, 01:05:05,VALID,999.434,VALID,0,VALID,94.6836,VALID,0,VALID,22.1617,VALID,26,VALID,0.158984,
2012-07-01, 01:06:05,VALID,999.404,VALID,0,VALID,94.7523,VALID,0,VALID,22.2007,VALID,26,VALID,0.108203,
2012-07-01, 01:07:05,VALID,999.395,VALID,0,VALID,94.7904,VALID,0,VALID,22.199,VALID,26,VALID,0.0128906,
2012-07-01, 01:08:05,VALID,999.394,VALID,0,VALID,94.8057,VALID,0,VALID,22.2592,VALID,26,VALID,0,
2012-07-01, 01:09:05,VALID,999.362,VALID,0,VALID,94.7751,VALID,0,VALID,22.2186,VALID,26,VALID,0,
2012-07-01, 01:10:05,VALID,999.32,VALID,0,VALID,94.737,VALID,0,VALID,22.2186,VALID,26,VALID,0,
2012-07-01, 01:11:05,VALID,999.312,VALID,0,VALID,94.6683,VALID,0,VALID,22.2202,VALID,26,VALID,0,
2012-07-01, 01:12:05,VALID,999.309,VALID,0,VALID,94.6226,VALID,0,VALID,22.1795,VALID,26,VALID,0,
2012-07-01, 01:13:05,VALID,999.302,VALID,0,VALID,94.6073,VALID,0,VALID,22.16,VALID,26,VALID,0,
2012-07-01, 01:14:05,VALID,999.318,VALID,0,VALID,94.6607,VALID,0,VALID,22.2007,VALID,26,VALID,0.375781,
2012-07-01, 01:15:05,VALID,999.307,VALID,0,VALID,94.7294,VALID,0,VALID,22.2397,VALID,26,VALID,0.455078,
2012-07-01, 01:16:05,VALID,999.315,VALID,0,VALID,94.798,VALID,0,VALID,22.2788,VALID,26,VALID,0.518359,
2012-07-01, 01:17:05,VALID,999.285,VALID,0,VALID,94.7904,VALID,0,VALID,22.3568,VALID,26,VALID,0.520312,
2012-07-01, 01:18:05,VALID,999.261,VALID,0,VALID,94.6683,VALID,0,VALID,22.4153,VALID,26,VALID,0.686719,
2012-07-01, 01:19:05,VALID,999.225,VALID,0,VALID,94.3555,VALID,0,VALID,22.4916,VALID,26,VALID,0.792969,
2012-07-01, 01:20:05,VALID,999.214,VALID,0,VALID,93.8443,VALID,0,VALID,22.5501,VALID,26,VALID,0.66875,
2012-07-01, 01:21:05,VALID,999.177,VALID,0,VALID,93.2645,VALID,0,VALID,22.6087,VALID,26,VALID,0.815234,
2012-07-01, 01:22:05,VALID,999.16,VALID,0,VALID,92.6999,VALID,0,VALID,22.6672,VALID,55,VALID,0.919531,
2012-07-01, 01:23:05,VALID,999.176,VALID,0,VALID,92.2268,VALID,0,VALID,22.7062,VALID,61,VALID,0.924219,
2012-07-01, 01:24:05,VALID,999.151,VALID,0,VALID,91.8454,VALID,0,VALID,22.7647,VALID,61,VALID,0.950391,
2012-07-01, 01:25:05,VALID,999.161,VALID,0,VALID,91.5173,VALID,0,VALID,22.7842,VALID,61,VALID,0.808594,
2012-07-01, 01:26:05,VALID,999.162,VALID,0,VALID,91.3571,VALID,0.104696,VALID,22.8037,VALID,61,VALID,0.672266,
2012-07-01, 01:27:05,VALID,999.149,VALID,0,VALID,91.2808,VALID,0,VALID,22.7842,VALID,60,VALID,0.758203,
2012-07-01, 01:28:05,VALID,999.159,VALID,0,VALID,91.0595,VALID,0,VALID,22.724,VALID,56,VALID,0.728125,
2012-07-01, 01:29:05,VALID,999.167,VALID,0,VALID,90.6933,VALID,0,VALID,22.6672,VALID,56,VALID,0.5875,
2012-07-01, 01:30:05,VALID,999.128,VALID,0,VALID,90.9069,VALID,0,VALID,22.5501,VALID,56,VALID,0.480469,
2012-07-01, 01:31:05,VALID,999.158,VALID,0,VALID,91.2579,VALID,0,VALID,22.4721,VALID,56,VALID,0.171094,
2012-07-01, 01:32:05,VALID,999.173,VALID,0,VALID,91.6851,VALID,0,VALID,22.3941,VALID,56,VALID,0.530859,
2012-07-01, 01:33:05,VALID,999.157,VALID,0,VALID,92.5549,VALID,0,VALID,22.3941,VALID,330,VALID,0.792188,
2012-07-01, 01:34:05,VALID,999.159,VALID,0,VALID,93.0051,VALID,0.104696,VALID,22.3746,VALID,330,VALID,0.679688,
2012-07-01, 01:35:05,VALID,999.135,VALID,0,VALID,93.1958,VALID,0,VALID,22.3551,VALID,330,VALID,0.378516,
2012-07-01, 01:36:05,VALID,999.116,VALID,0,VALID,93.3484,VALID,0.104696,VALID,22.3144,VALID,330,VALID,0.394531,
2012-07-01, 01:37:05,VALID,999.14,VALID,0,VALID,93.5926,VALID,0,VALID,22.3144,VALID,330,VALID,0.417578,
2012-07-01, 01:38:05,VALID,999.117,VALID,0,VALID,93.7757,VALID,0.104696,VALID,22.3144,VALID,330,VALID,0.557813,
2012-07-01, 01:39:05,VALID,999.114,VALID,0,VALID,93.8977,VALID,0,VALID,22.2949,VALID,353,VALID,0.810547,
2012-07-01, 01:40:05,VALID,999.081,VALID,0,VALID,93.9969,VALID,0.104696,VALID,22.2771,VALID,14,VALID,0.910937,
2012-07-01, 01:41:05,VALID,999.114,VALID,0,VALID,94.058,VALID,0,VALID,22.2576,VALID,14,VALID,0.763672,
2012-07-01, 01:42:05,VALID,999.09,VALID,0,VALID,94.0808,VALID,0,VALID,22.1779,VALID,14,VALID,0.816016,
2012-07-01, 01:43:05,VALID,999.084,VALID,0,VALID,94.1648,VALID,0,VALID,22.16,VALID,14,VALID,0.967188,
2012-07-01, 01:44:05,VALID,999.08,VALID,0,VALID,94.2487,VALID,0.104696,VALID,22.121,VALID,14,VALID,1.05547,
2012-07-01, 01:45:05,VALID,999.087,VALID,0,VALID,94.3097,VALID,0.104696,VALID,22.0413,VALID,14,VALID,0.971875,
2012-07-01, 01:46:05,VALID,999.104,VALID,0,VALID,94.4623,VALID,0,VALID,22.0625,VALID,14,VALID,1.05039,
2012-07-01, 01:47:05,VALID,999.093,VALID,0,VALID,94.5005,VALID,0,VALID,22.043,VALID,22,VALID,1.06406,
2012-07-01, 01:48:05,VALID,999.088,VALID,0,VALID,94.5005,VALID,0,VALID,22.004,VALID,25,VALID,0.849219,
2012-07-01, 01:49:05,VALID,999.107,VALID,0,VALID,94.5234,VALID,0,VALID,21.965,VALID,25,VALID,0.886719,
2012-07-01, 01:50:05,VALID,999.093,VALID,0,VALID,94.5691,VALID,0.104696,VALID,21.9455,VALID,25,VALID,0.807813,
2012-07-01, 01:51:05,VALID,999.085,VALID,0,VALID,94.5615,VALID,0.104696,VALID,21.9065,VALID,25,VALID,0.894531,
2012-07-01, 01:52:05,VALID,999.096,VALID,0,VALID,94.6683,VALID,0,VALID,21.8463,VALID,25,VALID,0.901563,
2012-07-01, 01:53:05,VALID,999.103,VALID,0,VALID,94.7828,VALID,0.104696,VALID,21.887,VALID,25,VALID,1.1043,
2012-07-01, 01:54:05,VALID,999.086,VALID,0,VALID,94.8514,VALID,0,VALID,21.887,VALID,25,VALID,1.08047,
2012-07-01, 01:55:05,VALID,999.096,VALID,0,VALID,94.943,VALID,0,VALID,21.887,VALID,25,VALID,1.01211,
2012-07-01, 01:56:05,VALID,999.053,VALID,0,VALID,95.0193,VALID,0.104696,VALID,21.9065,VALID,25,VALID,0.773828,
2012-07-01, 01:57:05,VALID,999.071,VALID,0,VALID,95.0422,VALID,0,VALID,21.887,VALID,25,VALID,0.718359,
2012-07-01, 01:58:05,VALID,999.035,VALID,0,VALID,95.0269,VALID,0,VALID,21.887,VALID,25,VALID,0.753516,
2012-07-01, 01:59:05,VALID,999.058,VALID,0,VALID,95.0117,VALID,0,VALID,21.8675,VALID,25,VALID,0.690234,
2012-07-01, 02:00:05,VALID,999.029,VALID,0,VALID,95.0574,VALID,0,VALID,21.8675,VALID,25,VALID,0.732422,
2012-07-01, 02:01:05,VALID,999.023,VALID,0,VALID,95.0498,VALID,0.104696,VALID,21.8675,VALID,25,VALID,0.660156,
2012-07-01, 02:02:05,VALID,999.005,VALID,0,VALID,95.0269,VALID,0,VALID,21.8675,VALID,25,VALID,0.759375,
2012-07-01, 02:03:05,VALID,999.009,VALID,0,VALID,95.0574,VALID,0.104696,VALID,21.848,VALID,25,VALID,0.96875,
2012-07-01, 02:04:05,VALID,998.976,VALID,0,VALID,95.0803,VALID,0,VALID,21.8692,VALID,25,VALID,0.966797,
2012-07-01, 02:05:05,VALID,998.986,VALID,0,VALID,95.1261,VALID,0,VALID,21.8692,VALID,25,VALID,0.872266,
2012-07-01, 02:06:05,VALID,998.971,VALID,0,VALID,95.1261,VALID,0,VALID,21.8692,VALID,25,VALID,1.00117,
2012-07-01, 02:07:05,VALID,998.961,VALID,0,VALID,95.1185,VALID,0,VALID,21.848,VALID,25,VALID,0.905078,
2012-07-01, 02:08:05,VALID,998.945,VALID,0,VALID,95.0803,VALID,0,VALID,21.8285,VALID,25,VALID,0.924609,
2012-07-01, 02:09:05,VALID,998.933,VALID,0,VALID,95.0727,VALID,0,VALID,21.809,VALID,25,VALID,1.0457,
2012-07-01, 02:10:05,VALID,998.975,VALID,0,VALID,95.0956,VALID,0,VALID,21.8301,VALID,25,VALID,1.03477,
2012-07-01, 02:11:05,VALID,998.968,VALID,0,VALID,95.1032,VALID,0,VALID,21.8301,VALID,25,VALID,1.00234,
2012-07-01, 02:12:05,VALID,998.957,VALID,0,VALID,95.088,VALID,0,VALID,21.8106,VALID,25,VALID,1.04961,
2012-07-01, 02:13:05,VALID,998.946,VALID,0,VALID,95.0956,VALID,0,VALID,21.7895,VALID,25,VALID,0.925391,
2012-07-01, 02:14:05,VALID,998.968,VALID,0,VALID,95.088,VALID,0,VALID,21.7911,VALID,25,VALID,0.856641,
2012-07-01, 02:15:05,VALID,998.982,VALID,0,VALID,95.1032,VALID,0,VALID,21.8106,VALID,25,VALID,0.821094,
2012-07-01, 02:16:05,VALID,998.973,VALID,0,VALID,95.088,VALID,0,VALID,21.77,VALID,25,VALID,0.875,
2012-07-01, 02:17:05,VALID,998.952,VALID,0,VALID,95.1185,VALID,0,VALID,21.8106,VALID,25,VALID,0.85625,
2012-07-01, 02:18:05,VALID,998.948,VALID,0,VALID,95.1185,VALID,0,VALID,21.7911,VALID,25,VALID,0.826563,
2012-07-01, 02:19:05,VALID,998.944,VALID,0,VALID,95.1337,VALID,0,VALID,21.809,VALID,25,VALID,0.649219,
2012-07-01, 02:20:05,VALID,998.883,VALID,0,VALID,95.1414,VALID,0,VALID,21.7895,VALID,25,VALID,0.685547,
2012-07-01, 02:21:05,VALID,998.924,VALID,0,VALID,95.2024,VALID,0,VALID,21.848,VALID,25,VALID,0.619531,
2012-07-01, 02:22:05,VALID,998.896,VALID,0,VALID,95.2329,VALID,0,VALID,21.848,VALID,25,VALID,0.5,
2012-07-01, 02:23:05,VALID,998.932,VALID,0,VALID,95.21,VALID,0,VALID,21.8675,VALID,25,VALID,0.882422,
2012-07-01, 02:24:05,VALID,998.926,VALID,0,VALID,95.1719,VALID,0,VALID,21.887,VALID,25,VALID,0.916406,
2012-07-01, 02:25:05,VALID,998.957,VALID,0,VALID,95.1566,VALID,0.104696,VALID,21.8658,VALID,25,VALID,1.04062,
2012-07-01, 02:26:05,VALID,998.976,VALID,0,VALID,95.1108,VALID,0.104696,VALID,21.887,VALID,25,VALID,1.15898,
2012-07-01, 02:27:05,VALID,998.948,VALID,0,VALID,95.0269,VALID,0.104696,VALID,21.8463,VALID,25,VALID,1.05195,
2012-07-01, 02:28:05,VALID,998.971,VALID,0,VALID,94.9506,VALID,0,VALID,21.8285,VALID,25,VALID,1.11328,
2012-07-01, 02:29:05,VALID,998.964,VALID,0,VALID,94.9506,VALID,0.104696,VALID,21.8268,VALID,25,VALID,1.36055,
2012-07-01, 02:30:05,VALID,999,VALID,0,VALID,94.9964,VALID,0,VALID,21.8675,VALID,17,VALID,1.31289,
2012-07-01, 02:31:05,VALID,998.991,VALID,0,VALID,94.9964,VALID,0,VALID,21.8853,VALID,14,VALID,1.39141,
2012-07-01, 02:32:05,VALID,998.97,VALID,0,VALID,94.9583,VALID,0.104696,VALID,21.9243,VALID,14,VALID,1.55586,
2012-07-01, 02:33:05,VALID,998.981,VALID,0,VALID,94.9125,VALID,0,VALID,21.9438,VALID,13,VALID,1.45938,
2012-07-01, 02:34:05,VALID,999.005,VALID,0,VALID,94.8285,VALID,0,VALID,21.965,VALID,13,VALID,1.45117,
2012-07-01, 02:35:05,VALID,999.012,VALID,0,VALID,94.7523,VALID,0,VALID,22.004,VALID,29,VALID,1.39688,
2012-07-01, 02:36:05,VALID,999.013,VALID,0,VALID,94.6302,VALID,0,VALID,22.043,VALID,21,VALID,1.00703,
2012-07-01, 02:37:05,VALID,999.03,VALID,0,VALID,94.4089,VALID,0,VALID,22.043,VALID,15,VALID,0.8875,
2012-07-01, 02:38:05,VALID,999.042,VALID,0,VALID,94.2411,VALID,0,VALID,22.0235,VALID,15,VALID,0.589844,
2012-07-01, 02:39:05,VALID,999.071,VALID,0,VALID,94.1571,VALID,0,VALID,21.9828,VALID,15,VALID,0.523438,
2012-07-01, 02:40:05,VALID,999.064,VALID,0,VALID,94.1648,VALID,0,VALID,21.9828,VALID,15,VALID,0.430859,
2012-07-01, 02:41:05,VALID,999.063,VALID,0,VALID,94.2258,VALID,0,VALID,21.9845,VALID,15,VALID,0.669141,
2012-07-01, 02:42:05,VALID,999.049,VALID,0,VALID,94.2868,VALID,0,VALID,21.9633,VALID,15,VALID,0.567578,
2012-07-01, 02:43:05,VALID,999.054,VALID,0,VALID,94.2716,VALID,0,VALID,21.965,VALID,15,VALID,0.622266,
2012-07-01, 02:44:05,VALID,999.03,VALID,0,VALID,94.2258,VALID,0,VALID,21.9455,VALID,15,VALID,0.558203,
2012-07-01, 02:45:05,VALID,999.012,VALID,0,VALID,94.2563,VALID,0,VALID,21.9455,VALID,19,VALID,0.801953,
2012-07-01, 02:46:05,VALID,999.005,VALID,0,VALID,94.47,VALID,0,VALID,22.0235,VALID,57,VALID,0.903125,
2012-07-01, 02:47:05,VALID,998.99,VALID,0,VALID,94.4013,VALID,0,VALID,22.043,VALID,57,VALID,0.771094,
2012-07-01, 02:48:05,VALID,998.989,VALID,0,VALID,94.3326,VALID,0,VALID,22.1015,VALID,57,VALID,0.607813,
2012-07-01, 02:49:05,VALID,999.005,VALID,0,VALID,94.2411,VALID,0,VALID,22.1405,VALID,57,VALID,0.592578,
2012-07-01, 02:50:05,VALID,999.008,VALID,0,VALID,94.2258,VALID,0.104696,VALID,22.2186,VALID,100,VALID,0.844141,
2012-07-01, 02:51:05,VALID,998.992,VALID,0,VALID,94.2563,VALID,0,VALID,22.3551,VALID,122,VALID,0.771094,
2012-07-01, 02:52:05,VALID,998.964,VALID,0,VALID,93.9359,VALID,0,VALID,22.4526,VALID,122,VALID,0.596484,
2012-07-01, 02:53:05,VALID,998.95,VALID,0,VALID,93.4628,VALID,0,VALID,22.4916,VALID,122,VALID,0.489844,
2012-07-01, 02:54:05,VALID,998.946,VALID,0,VALID,93.0508,VALID,0,VALID,22.5501,VALID,122,VALID,0.599219,
2012-07-01, 02:55:05,VALID,998.953,VALID,0,VALID,92.5702,VALID,0,VALID,22.5306,VALID,122,VALID,0.400781,
2012-07-01, 02:56:05,VALID,998.944,VALID,0,VALID,92.1887,VALID,0,VALID,22.5111,VALID,122,VALID,0.0945313,
2012-07-01, 02:57:05,VALID,998.953,VALID,0,VALID,91.853,VALID,0,VALID,22.4721,VALID,122,VALID,0.263672,
2012-07-01, 02:58:05,VALID,998.926,VALID,0,VALID,91.853,VALID,0,VALID,22.4136,VALID,122,VALID,0.183984,
2012-07-01, 02:59:05,VALID,998.912,VALID,0,VALID,91.8377,VALID,0,VALID,22.3551,VALID,122,VALID,0.396094,
2012-07-01, 03:00:05,VALID,998.911,VALID,0,VALID,91.8988,VALID,0,VALID,22.2966,VALID,122,VALID,0.321484,
2012-07-01, 03:01:05,VALID,998.916,VALID,0,VALID,92.1582,VALID,0,VALID,22.2576,VALID,122,VALID,0.363672,
2012-07-01, 03:02:05,VALID,998.9,VALID,0,VALID,92.3489,VALID,0,VALID,22.2381,VALID,122,VALID,0.549609,
2012-07-01, 03:03:05,VALID,998.891,VALID,0,VALID,92.6236,VALID,0,VALID,22.199,VALID,122,VALID,0.66875,
2012-07-01, 03:04:05,VALID,998.884,VALID,0,VALID,92.7991,VALID,0,VALID,22.2186,VALID,122,VALID,0.575781,
2012-07-01, 03:05:05,VALID,998.888,VALID,0,VALID,92.944,VALID,0,VALID,22.2186,VALID,122,VALID,0.551953,
2012-07-01, 03:06:05,VALID,998.862,VALID,0,VALID,93.0585,VALID,0,VALID,22.2576,VALID,122,VALID,0.567187,
2012-07-01, 03:07:05,VALID,998.874,VALID,0,VALID,93.1271,VALID,0,VALID,22.2771,VALID,122,VALID,0.306641,
2012-07-01, 03:08:05,VALID,998.88,VALID,0,VALID,93.1653,VALID,0,VALID,22.2576,VALID,122,VALID,0.377344,
2012-07-01, 03:09:05,VALID,998.891,VALID,0,VALID,93.1805,VALID,0,VALID,22.2559,VALID,122,VALID,0.458203,
2012-07-01, 03:10:05,VALID,998.868,VALID,0,VALID,93.3179,VALID,0,VALID,22.2576,VALID,122,VALID,0.664453,
2012-07-01, 03:11:05,VALID,998.897,VALID,0,VALID,93.5544,VALID,0,VALID,22.2771,VALID,63,VALID,0.928125,
2012-07-01, 03:12:05,VALID,998.893,VALID,0,VALID,93.6841,VALID,0,VALID,22.2559,VALID,63,VALID,0.864844,
2012-07-01, 03:13:05,VALID,998.885,VALID,0,VALID,93.6841,VALID,0,VALID,22.2966,VALID,60,VALID,0.921875,
2012-07-01, 03:14:05,VALID,998.864,VALID,0,VALID,93.5544,VALID,0,VALID,22.2966,VALID,51,VALID,0.927344,
2012-07-01, 03:15:05,VALID,998.887,VALID,0,VALID,93.3255,VALID,0,VALID,22.2381,VALID,51,VALID,0.820313,
2012-07-01, 03:16:04,VALID,998.885,VALID,0,VALID,93.2187,VALID,0,VALID,22.199,VALID,51,VALID,0.764453,
2012-07-01, 03:17:04,VALID,998.872,VALID,0,VALID,93.1958,VALID,0,VALID,22.121,VALID,51,VALID,0.905859,
2012-07-01, 03:18:04,VALID,998.864,VALID,0,VALID,93.3255,VALID,0,VALID,22.082,VALID,34,VALID,1.01953,
2012-07-01, 03:19:04,VALID,998.858,VALID,0,VALID,93.5391,VALID,0,VALID,22.0625,VALID,34,VALID,1.06641,
2012-07-01, 03:20:04,VALID,998.828,VALID,0,VALID,93.7451,VALID,0,VALID,22.0235,VALID,34,VALID,1.14688,
2012-07-01, 03:21:04,VALID,998.829,VALID,0,VALID,93.913,VALID,0,VALID,22.004,VALID,34,VALID,1.09453,
2012-07-01, 03:22:04,VALID,998.82,VALID,0,VALID,94.0808,VALID,0,VALID,22.0023,VALID,34,VALID,1.09883,
2012-07-01, 03:23:04,VALID,998.785,VALID,0,VALID,94.0503,VALID,0,VALID,21.9828,VALID,34,VALID,0.953516,
2012-07-01, 03:24:04,VALID,998.768,VALID,0,VALID,93.9893,VALID,0,VALID,21.9845,VALID,34,VALID,0.849219,
2012-07-01, 03:25:04,VALID,998.788,VALID,0,VALID,93.9359,VALID,0,VALID,21.965,VALID,34,VALID,0.642969,
2012-07-01, 03:26:04,VALID,998.74,VALID,0,VALID,93.8443,VALID,0,VALID,21.926,VALID,34,VALID,0.619922,
2012-07-01, 03:27:04,VALID,998.786,VALID,0,VALID,93.8291,VALID,0,VALID,21.9065,VALID,34,VALID,0.595312,
2012-07-01, 03:28:04,VALID,998.769,VALID,0,VALID,93.8825,VALID,0.104696,VALID,21.8658,VALID,34,VALID,0.608203,
2012-07-01, 03:29:04,VALID,998.771,VALID,0,VALID,93.9283,VALID,0,VALID,21.8463,VALID,34,VALID,0.5875,
2012-07-01, 03:30:04,VALID,998.758,VALID,0,VALID,94.0045,VALID,0,VALID,21.8675,VALID,34,VALID,0.51875,
2012-07-01, 03:31:04,VALID,998.732,VALID,0,VALID,94.119,VALID,0,VALID,21.848,VALID,34,VALID,0.494141,
2012-07-01, 03:32:04,VALID,998.716,VALID,0,VALID,94.2868,VALID,0,VALID,21.848,VALID,34,VALID,0.585547,
2012-07-01, 03:33:04,VALID,998.717,VALID,0,VALID,94.4242,VALID,0,VALID,21.8692,VALID,34,VALID,0.490234,
2012-07-01, 03:34:04,VALID,998.724,VALID,0,VALID,94.5386,VALID,0,VALID,21.8675,VALID,34,VALID,0.638672,
2012-07-01, 03:35:04,VALID,998.683,VALID,0,VALID,94.6149,VALID,0,VALID,21.887,VALID,34,VALID,0.749219,
2012-07-01, 03:36:04,VALID,998.729,VALID,0,VALID,94.6531,VALID,0,VALID,21.887,VALID,34,VALID,0.549219,
2012-07-01, 03:37:04,VALID,998.684,VALID,0,VALID,94.6531,VALID,0,VALID,21.887,VALID,34,VALID,0.529297,
2012-07-01, 03:38:04,VALID,998.728,VALID,0,VALID,94.6302,VALID,0,VALID,21.887,VALID,34,VALID,0.578125,
2012-07-01, 03:39:04,VALID,998.753,VALID,0,VALID,94.6073,VALID,0,VALID,21.8675,VALID,34,VALID,0.609766,
2012-07-01, 03:40:04,VALID,998.737,VALID,0,VALID,94.6378,VALID,0,VALID,21.8675,VALID,34,VALID,0.444141,
2012-07-01, 03:41:04,VALID,998.743,VALID,0,VALID,94.6683,VALID,0,VALID,21.8463,VALID,34,VALID,0.298438,
2012-07-01, 03:42:04,VALID,998.731,VALID,0,VALID,94.7523,VALID,0,VALID,21.8675,VALID,34,VALID,0.586719,
2012-07-01, 03:43:04,VALID,998.764,VALID,0,VALID,94.7446,VALID,0,VALID,21.887,VALID,34,VALID,0.629297,
2012-07-01, 03:44:04,VALID,998.808,VALID,0,VALID,94.6988,VALID,0,VALID,21.887,VALID,34,VALID,0.730078,
2012-07-01, 03:45:04,VALID,998.847,VALID,0,VALID,94.7599,VALID,0,VALID,21.8675,VALID,34,VALID,0.777734,
2012-07-01, 03:46:04,VALID,998.836,VALID,0,VALID,94.7828,VALID,0,VALID,21.887,VALID,34,VALID,0.469922,